This demonstration page uses our WeatherBlox Daily Observations layout. Learn more.

40.92945, -100.16068

Hourly Observations for March 6, 2020

Temp ( °F °C ) Dew Point ( °F °C ) Humidity (%) Winds ( mph kmh ) Pressure ( in mb ) Visibility ( mi km ) Precip ( " mm )
12:15 am 00:15 Clear 25 -4 18 -8 74 74 Calm 30.6 1036 10 16.0934 0 0
12:35 am 00:35 Clear 24 -4.7 19 -7.3 82 82 Calm 30.62 1037 10 16.0934 0 0
12:55 am 00:55 Clear 22 -5.8 17 -8.1 84 84 Calm 30.62 1037 10 16.0934 0 0
1:15 am 01:15 Clear 22 -5.7 17 -8.5 81 81 Calm 30.62 1037 10 16.0934 0 0
1:35 am 01:35 Clear 22 -5.8 17 -8.1 84 84 NE 3 6 30.62 1037 10 16.0934 0 0
1:55 am 01:55 Clear 21 -6.1 17 -8.2 85 85 ENE 6 9 30.61 1037 10 16.0934 0 0
2:15 am 02:15 Clear 22 -5.5 18 -8 83 83 Calm 30.62 1037 10 16.0934 0 0
2:35 am 02:35 Clear 22 -5.7 18 -7.6 87 87 Calm 30.62 1037 10 16.0934 0 0
2:55 am 02:55 Clear 22 -5.5 19 -7.5 86 86 Calm 30.61 1036 10 16.0934 0 0
3:15 am 03:15 Clear 22 -5.7 19 -7.5 87 87 Calm 30.61 1036 10 16.0934 0 0
3:35 am 03:35 Clear 22 -5.8 19 -7.5 88 88 Calm 30.61 1037 10 16.0934 0 0
3:55 am 03:55 Clear 20 -6.4 17 -8.2 87 87 Calm 30.61 1037 10 16.0934 0 0
4:15 am 04:15 Clear 20 -6.9 17 -8.4 89 89 Calm 30.61 1037 10 16.0934 0 0
4:35 am 04:35 Clear 21 -6.1 18 -7.8 88 88 Calm 30.61 1037 10 16.0934 0 0
4:55 am 04:55 Clear 20 -6.6 17 -8.3 88 88 Calm 30.62 1037 10 16.0934 0 0
5:15 am 05:15 Clear 21 -6.1 17 -8.2 85 85 SE 3 6 30.61 1037 10 16.0934 0 0
5:35 am 05:35 Clear 21 -6 17 -8.2 85 85 SSE 3 6 30.62 1037 10 16.0934 0 0
5:55 am 05:55 Clear 24 -4.6 19 -7.3 82 82 SSE 5 7 30.61 1036 10 16.0934 0 0
6:15 am 06:15 Clear 25 -3.7 20 -6.5 81 81 SSE 6 9 30.58 1035 10 16.0934 0 0
6:35 am 06:35 Clear 26 -3.4 21 -6.2 81 81 SSE 8 13 30.57 1035 10 16.0934 0 0
6:55 am 06:55 Clear 26 -3.1 21 -6.1 80 80 SSE 10 17 30.57 1035 10 16.0934 0 0
7:15 am 07:15 Sunny 26 -3.1 21 -6.2 79 79 SSE 10 17 30.57 1035 10 16.0934 0 0
7:35 am 07:35 Sunny 28 -2.3 22 -5.6 78 78 SSE 12 19 30.55 1035 10 16.0934 0 0
7:55 am 07:55 Sunny 29 -1.5 23 -5.1 77 77 SSE 12 19 30.54 1034 10 16.0934 0 0
8:15 am 08:15 Sunny 31 -0.3 24 -4.5 74 74 SSE 13 20 30.53 1034 10 16.0934 0 0
8:35 am 08:35 Sunny 33 0.7 25 -3.9 72 72 SSE 13 20 30.52 1034 10 16.0934 0 0
8:55 am 08:55 Sunny 35 1.6 25 -3.7 68 68 SSE 15 24 30.51 1033 10 16.0934 0 0
9:15 am 09:15 Sunny 36 2.4 26 -3.5 65 65 SSE 21 33 30.5 1033 10 16.0934 0 0
9:35 am 09:35 Sunny 38 3.2 26 -3.4 62 62 SSE 16 26 30.5 1033 10 16.0934 0 0
9:55 am 09:55 Sunny 40 4.5 26 -3.5 56 56 SSE 17 28 30.47 1032 10 16.0934 0 0
10:15 am 10:15 Sunny 41 5.1 25 -4 52 52 SSE 21 33 30.46 1031 10 16.0934 0 0
10:35 am 10:35 Sunny 43 6 25 -3.8 50 50 SSE 20 31 30.45 1031 10 16.0934 0 0
10:55 am 10:55 Sunny 44 6.6 25 -4 47 47 SSE 21 33 30.43 1031 10 16.0934 0 0
11:15 am 11:15 Sunny 45 7.4 25 -3.9 45 45 SSE 20 31 30.42 1030 10 16.0934 0 0
11:35 am 11:35 Sunny 47 8.5 24 -4.3 40 40 S 18 30 30.4 1029 10 16.0934 0 0
11:55 am 11:55 Sunny 49 9.4 25 -4 39 39 SSE 23 37 30.38 1029 10 16.0934 0 0
12:15 pm 12:15 Sunny 50 9.9 26 -3.6 39 39 S 20 31 30.36 1028 10 16.0934 0 0
12:35 pm 12:35 Sunny 51 10.5 26 -3.6 37 37 S 17 28 30.35 1028 10 16.0934 0 0
12:55 pm 12:55 Sunny 52 11 26 -3.4 37 37 S 21 33 30.33 1027 10 16.0934 0 0
1:15 pm 13:15 Sunny 53 11.8 26 -3.3 35 35 S 20 31 30.3 1026 10 16.0934 0 0
1:35 pm 13:35 Sunny 54 12 26 -3.1 35 35 SSE 20 31 30.28 1025 10 16.0934 0 0
1:55 pm 13:55 Sunny 55 12.7 26 -3.1 33 33 S 22 35 30.27 1025 10 16.0934 0 0
2:15 pm 14:15 Sunny 55 12.9 26 -3.1 33 33 S 21 33 30.25 1025 10 16.0934 0 0
2:35 pm 14:35 Sunny 57 14 28 -2.5 32 32 S 22 35 30.22 1024 10 16.0934 0 0
2:55 pm 14:55 Sunny 58 14.6 28 -2.5 31 31 S 16 26 30.21 1023 10 16.0934 0 0
3:15 pm 15:15 Sunny 58 14.6 27 -2.7 30 30 S 18 30 30.2 1023 10 16.0934 0 0
3:35 pm 15:35 Sunny 60 15.3 28 -2.2 30 30 SSE 23 37 30.18 1022 10 16.0934 0 0
3:55 pm 15:55 Sunny 60 15.3 28 -2.2 30 30 SSE 18 30 30.17 1022 10 16.0934 0 0
4:15 pm 16:15 Sunny 60 15.4 28 -2.1 30 30 SSE 18 30 30.16 1021 10 16.0934 0 0
4:35 pm 16:35 Sunny 59 15 28 -2.2 31 31 SSE 17 28 30.17 1022 10 16.0934 0 0
4:55 pm 16:55 Sunny 58 14.6 28 -2 32 32 SSE 18 30 30.16 1021 10 16.0934 0 0
5:15 pm 17:15 Sunny 57 13.8 28 -2.2 33 33 SSE 16 26 30.17 1022 10 16.0934 0 0
5:35 pm 17:35 Sunny 56 13.6 28 -2.2 34 34 SE 16 26 30.16 1021 10 16.0934 0 0
5:55 pm 17:55 Sunny 56 13.1 28 -2.1 35 35 SE 15 24 30.15 1021 10 16.0934 0 0
6:15 pm 18:15 Sunny 54 12.4 29 -1.9 37 37 SE 12 19 30.16 1021 10 16.0934 0 0
6:35 pm 18:35 Sunny 53 11.5 29 -1.8 40 40 SE 13 20 30.17 1022 10 16.0934 0 0
6:55 pm 18:55 Clear 50 10.1 29 -1.7 44 44 ESE 9 15 30.17 1022 10 16.0934 0 0
7:15 pm 19:15 Clear 49 9.3 29 -1.7 46 46 SE 9 15 30.18 1022 10 16.0934 0 0
7:35 pm 19:35 Clear 47 8.5 29 -1.7 49 49 ESE 12 19 30.19 1022 10 16.0934 0 0
7:55 pm 19:55 Clear 47 8.6 29 -1.8 48 48 SE 10 17 30.18 1022 10 16.0934 0 0
8:15 pm 20:15 Clear 49 9.2 28 -2.1 45 45 SSE 17 28 30.18 1022 10 16.0934 0 0
8:35 pm 20:35 Clear 48 8.7 28 -2.2 47 47 SSE 14 22 30.18 1022 10 16.0934 0 0
8:55 pm 20:55 Clear 48 8.9 28 -2.3 46 46 SSE 17 28 30.18 1022 10 16.0934 0 0
9:15 pm 21:15 Clear 48 8.7 28 -2.3 46 46 SSE 17 28 30.18 1022 10 16.0934 0 0
9:35 pm 21:35 Clear 47 8.5 28 -2.4 47 47 SSE 17 28 30.19 1022 10 16.0934 0 0
9:55 pm 21:55 Clear 47 8.2 28 -2.3 48 48 SSE 15 24 30.19 1022 10 16.0934 0 0
10:15 pm 22:15 Clear 46 8 28 -2.3 49 49 SSE 15 24 30.19 1022 10 16.0934 0 0
10:35 pm 22:35 Clear 46 7.8 28 -2.2 50 50 SSE 14 22 30.18 1022 10 16.0934 0 0
10:55 pm 22:55 Clear 45 7.2 28 -2.2 52 52 SSE 14 22 30.18 1022 10 16.0934 0 0
11:15 pm 23:15 Clear 45 7.4 28 -2.2 51 51 SSE 14 22 30.17 1022 10 16.0934 0 0
11:35 pm 23:35 Clear 45 7.2 28 -2.1 52 52 SSE 14 22 30.17 1022 10 16.0934 0 0
11:55 pm 23:55 Clear 45 7.2 28 -2.1 52 52 S 15 24 30.16 1021 10 16.0934 0 0

Powered by AerisWeather